• Em Portugal
  • Lista de países
  • Para 7 dias
  • Temperatura da água
  • Mapas de satélite
  • Mapa do tempo
  • Widgets de tempo
  • user-avatar
    Iniciar Sessão

    Previsão horária em Tibissa

    Hoje, 22 Abril, Domingo

    Tempo Temperatura Precipitação Vento Pressão Humidade
    00:00 +16°C° 0 mm 2 m/s 687 mmHg 63%
    01:00 +16°C° 0 mm 2 m/s 687 mmHg 63%
    02:00 +15°C° 0 mm 2 m/s 686 mmHg 63%
    03:00 +15°C° 0 mm 2 m/s 686 mmHg 64%
    04:00 +15°C° 0 mm 2 m/s 686 mmHg 65%
    05:00 +15°C° 0 mm 2 m/s 686 mmHg 63%
    06:00 +16°C° 0 mm 2 m/s 686 mmHg 61%
    07:00 +16°C° 0 mm 2 m/s 686 mmHg 58%
    08:00 +18°C° 0 mm 3 m/s 687 mmHg 52%
    09:00 +20°C° 0 mm 3 m/s 687 mmHg 46%
    10:00 +21°C° 0 mm 4 m/s 687 mmHg 40%
    11:00 +22°C° 0 mm 4 m/s 687 mmHg 36%
    12:00 +23°C° 0 mm 4 m/s 687 mmHg 33%
    13:00 +25°C° 0 mm 4 m/s 687 mmHg 30%
    14:00 +26°C° 0 mm 5 m/s 687 mmHg 29%
    15:00 +26°C° 0 mm 5 m/s 687 mmHg 28%
    16:00 +26°C° 0 mm 5 m/s 687 mmHg 28%
    17:00 +25°C° 0 mm 4 m/s 686 mmHg 33%
    18:00 +23°C° 0 mm 4 m/s 686 mmHg 38%
    19:00 +22°C° 0 mm 3 m/s 686 mmHg 43%
    20:00 +20°C° 0 mm 3 m/s 686 mmHg 49%
    21:00 +19°C° 0 mm 2 m/s 687 mmHg 54%
    22:00 +19°C° 0 mm 1 m/s 687 mmHg 59%
    23:00 +19°C° 0 mm 1 m/s 687 mmHg 61%

    Amanhã, 23 Abril, Segunda-feira

    Tempo Temperatura Precipitação Vento Pressão Humidade
    00:00 +18°C° 0 mm 1 m/s 687 mmHg 64%
    01:00 +16°C° 0 mm 1 m/s 687 mmHg 67%
    02:00 +16°C° 0 mm 1 m/s 686 mmHg 68%
    03:00 +15°C° 0 mm 1 m/s 686 mmHg 69%
    04:00 +15°C° 0 mm 1 m/s 686 mmHg 70%
    05:00 +16°C° 0 mm 1 m/s 686 mmHg 67%
    06:00 +16°C° 0 mm 1 m/s 686 mmHg 64%
    07:00 +18°C° 0 mm 1 m/s 687 mmHg 62%
    08:00 +20°C° 0 mm 1 m/s 687 mmHg 55%
    09:00 +21°C° 0 mm 1 m/s 688 mmHg 48%
    10:00 +23°C° 0 mm 2 m/s 688 mmHg 41%
    11:00 +24°C° 0 mm 2 m/s 688 mmHg 37%
    12:00 +25°C° 0 mm 2 m/s 688 mmHg 33%
    13:00 +27°C° 0 mm 2 m/s 688 mmHg 28%
    14:00 +27°C° 0 mm 3 m/s 688 mmHg 27%
    15:00 +27°C° 0 mm 3 m/s 688 mmHg 26%
    16:00 +28°C° 0 mm 3 m/s 687 mmHg 25%
    17:00 +27°C° 0 mm 4 m/s 687 mmHg 29%
    18:00 +26°C° 0 mm 4 m/s 687 mmHg 33%
    19:00 +23°C° 0 mm 4 m/s 687 mmHg 37%
    20:00 +22°C° 0 mm 4 m/s 687 mmHg 42%
    21:00 +21°C° 0 mm 3 m/s 687 mmHg 46%
    22:00 +20°C° 0 mm 3 m/s 688 mmHg 50%
    23:00 +19°C° 0 mm 2 m/s 688 mmHg 52%

    Depois de amanhã, 24 Abril, Terça-feira

    Tempo Temperatura Precipitação Vento Pressão Humidade
    00:00 +19°C° 0 mm 2 m/s 687 mmHg 55%
    01:00 +18°C° 0 mm 2 m/s 687 mmHg 57%
    02:00 +17°C° 0 mm 2 m/s 687 mmHg 59%
    03:00 +17°C° 0 mm 2 m/s 687 mmHg 60%
    04:00 +16°C° 0 mm 1 m/s 686 mmHg 62%
    05:00 +18°C° 0 mm 1 m/s 687 mmHg 60%
    06:00 +18°C° 0 mm 1 m/s 687 mmHg 58%
    07:00 +19°C° 0 mm 1 m/s 687 mmHg 56%
    08:00 +20°C° 0 mm 2 m/s 688 mmHg 50%
    09:00 +23°C° 0 mm 2 m/s 688 mmHg 43%
    10:00 +25°C° 0 mm 2 m/s 689 mmHg 37%
    11:00 +26°C° 0 mm 3 m/s 689 mmHg 33%
    12:00 +27°C° 0 mm 4 m/s 689 mmHg 30%
    13:00 +28°C° 0 mm 4 m/s 689 mmHg 27%
    14:00 +28°C° 0 mm 4 m/s 689 mmHg 26%
    15:00 +29°C° 0 mm 4 m/s 688 mmHg 25%
    16:00 +29°C° 0 mm 4 m/s 688 mmHg 23%
    17:00 +28°C° 0 mm 4 m/s 687 mmHg 26%
    18:00 +26°C° 0 mm 4 m/s 687 mmHg 29%
    19:00 +25°C° 0 mm 4 m/s 687 mmHg 32%
    20:00 +23°C° 0 mm 4 m/s 687 mmHg 36%
    21:00 +22°C° 0 mm 4 m/s 687 mmHg 39%
    22:00 +21°C° 0 mm 3 m/s 687 mmHg 43%
    23:00 +20°C° 0 mm 3 m/s 687 mmHg 45%

    25 Abril, Quarta-feira

    Tempo Temperatura Precipitação Vento Pressão Humidade
    00:00 +19°C° 0 mm 2 m/s 687 mmHg 47%
    01:00 +19°C° 0 mm 2 m/s 686 mmHg 49%
    02:00 +18°C° 0 mm 2 m/s 686 mmHg 49%
    03:00 +18°C° 0 mm 2 m/s 686 mmHg 49%
    04:00 +18°C° 0 mm 2 m/s 685 mmHg 50%
    05:00 +18°C° 0 mm 2 m/s 685 mmHg 48%
    06:00 +18°C° 0 mm 2 m/s 685 mmHg 47%
    07:00 +19°C° 0 mm 2 m/s 685 mmHg 45%
    08:00 +20°C° 0 mm 3 m/s 686 mmHg 41%
    09:00 +21°C° 0 mm 3 m/s 686 mmHg 37%
    10:00 +22°C° 0 mm 4 m/s 686 mmHg 32%
    11:00 +25°C° 0 mm 5 m/s 686 mmHg 30%
    12:00 +26°C° 0 mm 6 m/s 686 mmHg 27%
    13:00 +28°C° 0 mm 7 m/s 686 mmHg 24%
    14:00 +28°C° 0 mm 7 m/s 686 mmHg 24%
    15:00 +28°C° 0 mm 7 m/s 685 mmHg 24%
    16:00 +28°C° 0 mm 7 m/s 685 mmHg 24%
    17:00 +26°C° 0 mm 6 m/s 685 mmHg 27%
    18:00 +24°C° 0 mm 6 m/s 684 mmHg 31%
    19:00 +22°C° 0 mm 5 m/s 684 mmHg 35%
    20:00 +21°C° 0,1 mm 5 m/s 684 mmHg 38%
    21:00 +20°C° 0,1 mm 5 m/s 684 mmHg 41%
    22:00 +19°C° 0,1 mm 4 m/s 684 mmHg 43%
    23:00 +18°C° 0 mm 4 m/s 684 mmHg 43%

    26 Abril, Quinta-feira

    Tempo Temperatura Precipitação Vento Pressão Humidade
    00:00 +18°C° 0 mm 4 m/s 683 mmHg 43%
    01:00 +17°C° 0 mm 4 m/s 682 mmHg 42%
    02:00 +16°C° 0 mm 5 m/s 682 mmHg 42%
    03:00 +16°C° 0 mm 5 m/s 681 mmHg 42%
    04:00 +15°C° 0 mm 5 m/s 681 mmHg 42%
    05:00 +15°C° 0,1 mm 5 m/s 680 mmHg 43%
    06:00 +16°C° 0,1 mm 6 m/s 680 mmHg 45%
    07:00 +16°C° 0,1 mm 6 m/s 680 mmHg 46%
    08:00 +18°C° 0 mm 7 m/s 680 mmHg 42%
    09:00 +21°C° 0 mm 9 m/s 680 mmHg 38%
    10:00 +23°C° 0 mm 10 m/s 681 mmHg 33%
    11:00 +24°C° 0 mm 10 m/s 680 mmHg 33%
    12:00 +24°C° 0 mm 11 m/s 680 mmHg 33%
    13:00 +26°C° 0 mm 11 m/s 679 mmHg 33%
    14:00 +26°C° 0 mm 10 m/s 679 mmHg 31%
    15:00 +27°C° 0 mm 9 m/s 678 mmHg 29%
    16:00 +27°C° 0 mm 8 m/s 678 mmHg 27%
    17:00 +26°C° 0 mm 8 m/s 678 mmHg 30%
    18:00 +24°C° 0 mm 7 m/s 678 mmHg 33%
    19:00 +22°C° 0 mm 7 m/s 678 mmHg 37%
    20:00 +21°C° 0 mm 6 m/s 678 mmHg 44%
    21:00 +19°C° 0 mm 5 m/s 678 mmHg 52%
    22:00 +17°C° 0 mm 5 m/s 678 mmHg 60%
    23:00 +17°C° 0 mm 4 m/s 678 mmHg 63%

    27 Abril, Sexta-feira

    Tempo Temperatura Precipitação Vento Pressão Humidade
    00:00 +16°C° 0 mm 3 m/s 678 mmHg 67%
    01:00 +16°C° 0 mm 2 m/s 677 mmHg 70%
    02:00 +15°C° 0 mm 2 m/s 677 mmHg 74%
    03:00 +14°C° 0 mm 3 m/s 677 mmHg 77%
    04:00 +13°C° 0 mm 3 m/s 676 mmHg 81%
    05:00 +13°C° 0 mm 3 m/s 677 mmHg 82%
    06:00 +13°C° 0 mm 4 m/s 677 mmHg 82%
    07:00 +13°C° 0 mm 4 m/s 677 mmHg 83%
    08:00 +14°C° 0 mm 5 m/s 678 mmHg 79%
    09:00 +14°C° 0 mm 6 m/s 678 mmHg 75%
    10:00 +15°C° 0 mm 6 m/s 678 mmHg 72%
    11:00 +16°C° 0 mm 7 m/s 679 mmHg 67%
    12:00 +16°C° 0 mm 7 m/s 679 mmHg 63%
    13:00 +17°C° 0 mm 7 m/s 679 mmHg 59%
    14:00 +17°C° 0 mm 7 m/s 679 mmHg 60%
    15:00 +17°C° 0 mm 8 m/s 679 mmHg 61%
    16:00 +16°C° 0 mm 8 m/s 679 mmHg 62%
    17:00 +16°C° 0 mm 8 m/s 679 mmHg 64%
    18:00 +15°C° 0 mm 7 m/s 679 mmHg 65%
    19:00 +14°C° 0 mm 7 m/s 679 mmHg 67%
    20:00 +12°C° 0 mm 7 m/s 680 mmHg 71%
    21:00 +13°C° 0 mm 6 m/s 680 mmHg 75%
    22:00 +11°C° 0 mm 6 m/s 681 mmHg 79%
    23:00 +10°C° 0 mm 5 m/s 681 mmHg 79%
    Mostrar mais